Regional Weather Roundup
Issued by NWS San Diego, CA

Home | Current Version | Previous Version | Text Only | Print | Product List | Glossary On
Versions: 1 2 3 4 5 6 7 8 9 10 11 12 13 14 15 16 17 18 19 20 21 22 23 24 25 26 27 28 29 30 31 32 33 34 35 36 37 38 39 40 41 42 43 44 45 46 47 48 49 50
000
ASUS46 KSGX 271311
RWRSGX

SAN DIEGO HOURLY WEATHER ROUNDUP
NATIONAL WEATHER SERVICE SAN DIEGO CA
500 AM PST FRI FEB 27 2015

NOTE: "FAIR" INDICATES FEW OR NO CLOUDS BELOW 12,000 FEET WITH NO
SIGNIFICANT WEATHER AND/OR OBSTRUCTIONS TO VISIBILITY.

CAZ042-043-060-061-PZZ750-775-271400-

GREATER SAN DIEGO AREA

CITY           SKY/WX    TMP DP  RH WIND       PRES   REMARKS
LINDBERGH FLD  MOCLDY    58  49  72 E7        29.85S
NATIONAL CITY    N/A     56  52  85 CALM      29.84F
CHULA VISTA      N/A     55  52  90 CALM      29.76F
IMPERIAL BEACH CLOUDY    57  51  80 E6        29.84S
BROWN FIELD    CLOUDY    54  50  86 E7        29.83F
MIRAMAR MCAS   MOCLDY    53  48  83 E6        29.82F
MONTGOMERY FLD CLOUDY    55  50  83 E7        29.83F

$$

NORTH SAN DIEGO COUNTY

CITY           SKY/WX    TMP DP  RH WIND       PRES   REMARKS
CAMP PENDLETON CLOUDY    50  45  83 CALM      29.83S
OCEANSIDE AP   CLOUDY    50  47  89 CALM      29.82S
OCEANSIDE HBR    N/A     52  50  92 NE3       29.85R
VISTA            N/A     54  48  81 CALM      29.82F
CARLSBAD       CLOUDY    55  50  83 E3        29.82S
DEL MAR          N/A     55  52  90 CALM      29.84F
LA JOLLA SCRIP   N/A     55  12  18 CALM      29.80F
FALLBROOK        N/A     53  53 100 CALM      29.85S
ESCONDIDO        N/A     54  50  87 SE2       29.85S
SAN MARCOS       N/A    N/A N/A N/A CALM      29.82F
POWAY            N/A     54  50  88 W2        29.86F

$$

EAST SAN DIEGO COUNTY

CITY           SKY/WX    TMP DP  RH WIND       PRES   REMARKS
RAMONA         CLOUDY    49  47  93 E5        29.83F
SANTEE LAKES     N/A     52  50  93 CALM      29.85F
LA MESA          N/A     55  50  84 CALM      29.78F
JAMUL            N/A     48  47  95 CALM      29.85S
DESCANSO N       N/A     35  30  83 CALM      29.74F
MT. LAGUNA OBS   N/A     40  22  49 W10       29.45F WCI  33
CAMPO            N/A     32  31  96 CALM      29.80S

$$

ORANGE COUNTY AND THE LOS ANGELES BASIN

CITY           SKY/WX    TMP DP  RH WIND       PRES   REMARKS
JOHN WAYNE AP  CLOUDY    58  48  69 SE5       29.82S
LAGUNA BEACH     N/A     52  51  95 N5        29.78S
LAKE FOREST FR   N/A     51  44  79 CALM      29.72S
SANTA ANA        N/A     53  48  83 CALM      29.78R
HUNTINGTON BCH   N/A     51  50  96 CALM      29.84S
LOS ALAMITOS   CLOUDY    55  52  88 E5        29.82S
FULLERTON      CLOUDY    55  49  80 E3        29.82S
LONG BEACH     MOCLDY    55  50  83 CALM      29.82S
L.A. AP        MOCLDY    53  51  93 E3        29.83R
L.A. DOWNTOWN  CLOUDY   N/A N/A N/A E3        29.82R

$$

THE INLAND EMPIRE

CITY           SKY/WX    TMP DP  RH WIND       PRES   REMARKS
CORONA         CLEAR     39  39 100 CALM      29.84R
CHINO          CLEAR     47  45  93 CALM      29.84S
ONTARIO        MOCLDY    49  47  93 NW5       29.82S
RIVERSIDE AP   CLOUDY    49  45  86 CALM      29.83S
RIV CYN CREST    N/A     50  50 100 S1          N/A
MORENO VALLEY    N/A     47  46  97 CALM      29.03F
MARCH ARB      PTCLDY    44  44 100 CALM      29.82S
HORSETHIEF CYN   N/A     44  40  84 S1        29.81R
PERRIS           N/A     48  47  96 CALM        N/A
MENIFEE          N/A     47  46  96 CALM      29.90S
HEMET EAST       N/A     46  39  76 CALM      29.82F
FRENCH VALLEY  PTSUNNY   46  45  93 CALM      29.82F
TEMECULA         N/A     53  52  95 S2        29.79S

$$

SAN BERNARDINO AND RIVERSIDE COUNTY MOUNTAINS

CITY           SKY/WX    TMP DP  RH WIND       PRES   REMARKS
BIG BEAR AP    CLEAR     34  21  60 W8        29.85F WCI  27
ANGELUS OAKS     N/A     41  21  44 CALM      29.73F
PINE COVE        N/A     41  23  48 NW3       29.76S

$$

SOUTHERN DESERT INCLUDING THE COACHELLA VALLEY

CITY           SKY/WX    TMP DP  RH WIND       PRES   REMARKS
PALM SPRINGS   CLEAR     53  44  71 S5        29.72S
THOUSAND PALMS   N/A     62  45  53 NW17      29.70S
PALM DESERT      N/A     53  44  72 CALM      27.85S
THERMAL        CLEAR     60  44  55 W6        29.70S
BLYTHE         CLEAR     51  32  48 W5        29.71S
IMPERIAL AP    CLEAR     52  39  61 CALM      29.70F
EL CENTRO NAS  CLEAR     51  33  50 NW3       29.71S
YUMA AZ        CLEAR     55  32  41 E7        29.72R

$$

UPPER DESERT

CITY           SKY/WX    TMP DP  RH WIND       PRES   REMARKS
VICTORVILLE AP   N/A     45  32  61 S7        29.77F
HESPERIA         N/A     47  35  63 W7        29.90F
APPLE VALLEY     N/A     38  33  82 CALM      29.89F
PALMDALE       CLEAR     43  33  68 SE5       29.80S
LANCASTER      CLEAR     51  36  56 W21       29.79S
EDWARDS AFB    CLEAR     50  36  57 W13       29.75R
DAGGETT        CLEAR     47  34  60 W12       29.77S
29 PALMS N     CLEAR     54  31  41 NW9       29.82F
NEEDLES        PTCLDY    55  31  39 NW7       29.74R

$$

REGIONAL REPORTS

CITY           SKY/WX    TMP DP  RH WIND       PRES   REMARKS
SANTA BARBARA  CLEAR     48  45  89 CALM      29.79S
SANDBERG       CLEAR     45  33  63 VRB5      29.85S
MT. WILSON       N/A     43  19  39 MISG        N/A
LAS VEGAS NV   PTCLDY    48  27  44 S9        29.74F
PHOENIX AZ     PTCLDY    50  33  52 E8        29.73S
TIJUANA        MOCLDY    55  48  76 NE7       29.85
ENSENADA NW      N/A     58  32  38 S2        29.84R

$$

OFFSHORE ISLANDS

CITY           SKY/WX    TMP DP  RH WIND       PRES   REMARKS
CATALINA ARPT  CLEAR     52  42  69 W5        29.82F
SAN NICOLAS IS CLOUDY    32  32 100 NW23G30   29.81S WCI  19

$$

MARINE AND OFFSHORE BUOY REPORTS

STATION/POSITION SKY/WX   TEMP    WIND        PRES    SWELL
                          AIR SEA DIR/SP/G            HT/PER/DIR
                          (F)     (DEG/KT/KT) (MB)    (FT/S/D)
TANNER BANKS               60 62  330/ 17/ 21 1009.7F  10/320/10
S CLEMENTE BASIN           60 62  290/  4/  6 1009.6R   5/290/ 9
SAN NICOLAS IS.               60                N/A     5/310/11
SO. S. ROSA ISLA           58 60  320/ 25/ 29 1009.0S   7/11
W. S. BARBARA CH           58 59  320/ 23/ 27 1009.4S   8/320/ 9
S. MONICA BASIN            60 63   90/  6/  6 1009.3R   3/260/ 6
S PEDRO CHANNEL               62                N/A     2/280/11
DANA POINT                    62                N/A     2/200/15
CMP PENDLETON NS              62                N/A     2/210/14
OCEANSIDE OFFSHR              62                N/A     2/260/11
TORREY PINES OTR              63                N/A     2/200/15
LA JOLLA 1                 57 61  110/  8/ 10 1010.3R
MISSION BAY BUOY              63                N/A     2/270/11
SAN DIEGO BAY                                 1011.0R
POINT LOMA SOUTH              63                N/A     2/270/11

$$




USA.gov is the U.S. government's official web portal to all federal, state and local government web resources and services.